Temp
63 61 61 60 60 60 60 61 63 63 63 63 64 64 63 62 62 62 62 61 60 61
63 63 62 62 62 61 62 63 63 64 63 63 63 63 62 62 62 62 62 61 61 62
64 64 63 62 62 62 62 62 62 64 63 63 63 64 64 63 62 63 62 62 62 61
65 65 64 62 64 61 62 63 64 64 63 63 64 64 63 62 62 62 61 61 61 61
65 64 64 62 63 63 62 63 64 65 64 64 63 62 62 62 62 61 60 60 61 60
63 64 63 62 62 64 62 62 64 64 64 64 64 63 63 63 62 61 61 60 60 60
62 64 63 64 62 64 64 63 63 63 65 66 65 65 64 64 62 62 61 61 61 61
63 64 65 65 65 64 65 64 65 64 63 64 65 66 64 64 62 61 61 61 61 61
65 66 64 64 64 63 63 63 64 63 62 60 62 52 56 61 62 62 61 60 61 60
66 66 65 66 64 62 61 60 60 60 60 57 55 51 53 57 64 62 61 60 60 63
66 66 66 64 62 61 60 59 58 59 59 58 56 50 52 55 62 60 61 61 61 61
67 65 64 62 61 61 60 58 58 59 58 58 56 52 53 60 60 60 60 61 60 61
68 65 63 61 60 61 61 61 61 60 59 57 58 50 51 59 62 57 58 57 57 54
66 65 62 61 61 61 61 61 60 60 58 59 58 55 49 53 61 60 58 58 56 54
MSLP
1009.10 1009.17 1009.16 1009.15 1009.03 1008.80 1008.69 1008.56 1008.63 1008.72 1008.88 1009.14 1009.46 1009.53 1009.82 1010.24 1010.69 1011.13 1011.55 1011.97 1012.33 1012.99
1009.06 1008.99 1009.07 1009.14 1009.00 1008.84 1008.74 1008.66 1008.60 1008.64 1008.84 1009.15 1009.36 1009.76 1010.11 1010.56 1011.06 1011.33 1011.94 1012.50 1012.80 1013.39
1008.95 1008.91 1009.02 1009.20 1009.24 1009.16 1009.08 1008.97 1008.71 1008.66 1008.90 1009.26 1009.69 1010.19 1010.64 1011.23 1011.82 1012.01 1012.53 1012.83 1013.32 1013.95
1008.93 1008.98 1009.19 1009.35 1009.46 1009.45 1009.41 1009.21 1009.04 1009.03 1009.20 1009.49 1009.94 1010.60 1011.18 1011.81 1012.27 1012.73 1013.09 1013.50 1013.76 1014.26
1009.04 1009.18 1009.47 1009.68 1009.72 1009.54 1009.52 1009.57 1009.39 1009.37 1009.62 1009.90 1010.37 1010.95 1011.52 1012.12 1012.77 1013.11 1013.58 1014.00 1014.36 1014.82
1009.34 1009.52 1009.70 1009.94 1009.94 1009.90 1009.88 1009.89 1009.88 1009.93 1010.03 1010.39 1010.78 1011.32 1011.85 1012.34 1012.95 1013.46 1013.91 1014.36 1014.70 1015.21
1009.48 1009.59 1009.63 1009.74 1010.06 1010.06 1010.13 1010.12 1010.13 1010.36 1010.48 1010.70 1011.21 1011.65 1012.09 1012.50 1013.00 1013.70 1014.25 1014.59 1014.94 1015.38
1009.49 1009.50 1009.63 1009.76 1010.00 1010.09 1010.33 1010.45 1010.64 1010.79 1011.01 1011.20 1011.53 1011.97 1012.35 1012.76 1013.19 1013.66 1014.33 1014.90 1015.26 1015.55
1009.40 1009.53 1009.81 1009.85 1010.09 1010.35 1010.54 1010.82 1010.98 1011.25 1011.42 1011.89 1012.07 1012.33 1012.65 1012.99 1013.46 1013.97 1014.23 1014.99 1015.42 1016.03
1009.36 1009.72 1009.92 1009.98 1010.27 1010.77 1011.11 1011.24 1011.55 1011.79 1011.99 1012.40 1012.56 1012.63 1013.01 1013.41 1013.68 1014.16 1014.51 1014.98 1015.56 1016.00
1009.26 1009.67 1010.06 1010.35 1010.68 1011.10 1011.39 1011.79 1012.11 1012.28 1012.49 1012.81 1013.21 1013.04 1013.36 1013.64 1013.92 1014.31 1014.70 1015.12 1015.54 1016.00
1008.99 1009.58 1010.09 1010.58 1010.90 1011.23 1011.69 1012.08 1012.35 1012.58 1012.86 1013.11 1013.42 1013.39 1013.66 1013.91 1014.33 1014.76 1015.10 1015.41 1015.84 1016.12
1008.57 1009.30 1009.95 1010.56 1010.96 1011.22 1011.53 1012.05 1012.38 1012.87 1013.08 1013.41 1013.71 1013.82 1013.88 1014.10 1014.59 1015.23 1015.60 1015.84 1016.11 1016.37
1008.08 1008.89 1009.60 1010.37 1010.79 1011.30 1011.73 1012.05 1012.54 1012.94 1013.30 1013.52 1013.82 1014.28 1014.40 1014.52 1014.73 1015.26 1015.88 1016.28 1016.68 1016.87
Wind_Speed
4 2 2 1 2 2 2 2 3 4 5 4 6 5 5 4 4 6 5 8 6 8
4 3 3 1 3 2 2 2 4 5 6 5 6 5 6 5 7 8 7 8 8 9
5 3 3 3 4 4 3 3 4 6 6 6 6 10 9 9 9 10 7 6 10 9
4 5 6 5 4 5 4 3 6 5 6 7 9 11 10 11 10 12 9 7 10 11
6 6 5 6 4 4 6 6 5 6 7 7 9 9 11 11 9 11 12 12 10 9
6 5 5 6 5 4 5 6 6 5 7 8 9 10 9 10 10 9 9 9 10 10
6 4 3 5 6 5 5 5 5 6 5 7 7 8 9 10 9 10 8 7 8 9
6 5 3 4 6 6 6 5 6 5 6 5 6 6 9 10 9 9 9 9 7 7
6 3 5 5 6 6 5 6 7 7 7 7 4 9 13 9 8 8 8 9 7 7
6 6 6 5 5 6 6 7 7 7 7 7 6 10 13 11 7 6 6 8 9 8
7 7 6 5 6 6 6 7 6 6 7 7 5 11 13 12 7 7 6 7 8 7
8 7 7 7 7 4 6 5 4 5 6 7 5 9 10 9 7 6 6 6 7 8
10 9 8 8 7 4 4 5 5 6 6 7 5 8 10 7 5 6 5 5 5 10
10 11 9 9 5 5 4 5 6 7 6 6 6 5 7 7 4 6 5 5 4 4
Wind_Direction
98 148 115 355 357 30 39 118 150 167 166 146 147 164 128 116 123 118 115 109 102 116
145 153 151 125 22 54 74 62 81 134 141 154 145 116 101 103 99 87 89 97 93 109
174 153 108 83 72 65 84 59 56 105 111 122 118 107 105 98 99 106 104 108 109 106
101 98 90 85 76 69 80 86 53 80 111 111 111 114 106 112 107 116 109 101 118 120
102 95 96 92 93 67 63 64 84 73 77 107 106 115 113 114 119 123 124 129 123 116
108 100 121 109 123 104 81 80 63 68 89 103 109 110 110 117 118 118 118 125 127 129
129 140 148 128 138 123 112 105 88 90 89 111 113 119 120 118 120 120 120 122 129 130
148 178 149 121 129 124 126 114 93 76 82 80 102 116 129 126 124 125 129 130 138 129
148 141 125 123 111 127 115 88 94 78 84 87 85 120 109 113 120 124 135 132 133 134
162 139 129 126 109 106 120 100 91 91 83 80 91 128 124 128 132 132 133 133 135 147
157 147 145 128 112 99 112 118 115 106 107 98 75 106 130 122 130 127 130 137 143 138
155 156 152 139 137 120 116 117 115 120 109 104 80 84 109 111 113 110 126 129 146 140
155 160 154 150 148 141 132 135 134 130 132 127 116 74 78 102 112 102 102 79 97 135
153 160 154 150 143 143 154 137 147 145 157 151 157 119 91 75 119 140 140 136 134 131